Houston Hull, TX

12:41 AM CDT on July 25, 2017 (GMT -0500)
Sugar Land Municipal-Hull

Weather History for KSGR - January, 2015

Change the Weather History Date:

Friday, January 2, 2015

  Actual Average Record
Temperature  
Mean Temperature 50 °F -  
Max Temperature 53 °F 57 °F 83 °F (1952)
Min Temperature 46 °F 40 °F 16 °F (1979)
Degree Days  
Heating Degree Days 16    
Moisture  
Dew Point 49 °F    
Average Humidity 95    
Maximum Humidity 100    
Minimum Humidity 89    
Precipitation  
Precipitation 0.42 in - - ()
Sea Level Pressure  
Sea Level Pressure 30.03 in    
Wind  
Wind Speed 7 mph (NNE)    
Max Wind Speed 12 mph    
Max Gust Speed -    
Visibility 4 miles    
Events Rain , Thunderstorm    
Averages and records for this station are not official NWS values.
T = Trace of Precipitation, MM = Missing Value Source: NWS Daily Summary

Daily Weather History Graph

Daily Weather History Graph

Search for Another Location

Airport or City:

Trip Planner

Search our weather history database for the weather conditions in past years. The results will help you decide how hot, cold, wet, or windy it might be!

Date:

Astronomy

Jan. 02, 2015 Rise Set
Actual Time 7:17 AM CST 5:35 PM CST
Civil Twilight 6:51 AM CST 6:01 PM CST
Nautical Twilight 6:22 AM CST 6:31 PM CST
Astronomical Twilight 5:53 AM CST 7:00 PM CST
Moon 3:50 PM CST (1/2) 4:51 AM CST (1/2)
Length of Visible Light 11h 09m
Length of Day
10h 17m
Waxing Gibbous, 94% of the Moon is Illuminated
Jan 2
Waxing Gibbous
Jan 4
Full
Jan 13
Last Quarter
Jan 20
New
Jan 26
First Quarter

Hourly Weather History & Observations

Time (CST) Temp. Windchill Dew Point Humidity Pressure Visibility Wind Dir Wind Speed Gust Speed Precip Events Conditions
12:53 AM 46.9 °F - 46.0 °F 97% 30.11 in 1.8 mi North 8.1 mph - N/A   Overcast
1:51 AM 46.4 °F 42.4 °F 46.4 °F 100% 30.10 in 2.0 mi North 8.1 mph - N/A   Overcast
1:53 AM 46.9 °F - 46.0 °F 97% 30.10 in 2.0 mi North 8.1 mph - N/A   Overcast
2:15 AM 46.9 °F - 46.0 °F 97% 30.10 in 3.0 mi North 6.9 mph - N/A   Overcast
2:37 AM 46.9 °F - 46.0 °F 97% 30.10 in 2.5 mi North 8.1 mph - N/A   Overcast
2:53 AM 46.9 °F - 46.0 °F 97% 30.10 in 3.0 mi North 9.2 mph - N/A   Overcast
3:53 AM 46.9 °F - 46.0 °F 97% 30.11 in 4.0 mi NNE 8.1 mph - N/A   Overcast
4:32 AM 46.9 °F - 46.0 °F 97% 30.09 in 4.0 mi NNE 8.1 mph - N/A   Overcast
4:53 AM 46.9 °F - 46.0 °F 97% 30.10 in 9.0 mi North 6.9 mph - N/A   Overcast
5:05 AM 46.9 °F - 46.0 °F 97% 30.09 in 10.0 mi North 5.8 mph - N/A   Overcast
5:53 AM 46.9 °F - 46.0 °F 97% 30.10 in 6.0 mi NNE 6.9 mph - N/A   Overcast
6:53 AM 48.0 °F - 46.0 °F 93% 30.12 in 10.0 mi NNE 4.6 mph - N/A   Overcast
7:29 AM 48.0 °F - 46.0 °F 93% 30.10 in 3.0 mi NE 9.2 mph - N/A   Overcast
7:37 AM 48.0 °F - 46.0 °F 93% 30.11 in 1.8 mi NE 8.1 mph - N/A   Overcast
7:44 AM 48.0 °F - 46.0 °F 93% 30.10 in 2.5 mi NE 11.5 mph - N/A   Overcast
7:51 AM 48.2 °F - 46.4 °F 93% 30.10 in 3.0 mi NE 10.4 mph - N/A   Overcast
7:53 AM 48.0 °F - 46.0 °F 93% 30.11 in 4.0 mi NE 9.2 mph - N/A   Overcast
8:09 AM 48.0 °F - 46.0 °F 93% 30.10 in 5.0 mi NE 11.5 mph - N/A   Overcast
8:53 AM 50.0 °F - 46.9 °F 89% 30.11 in 8.0 mi NE 9.2 mph - N/A   Overcast
9:53 AM 51.1 °F - 48.9 °F 92% 30.12 in 9.0 mi ENE 6.9 mph - 0.00 in Rain Light Rain
10:53 AM 53.1 °F - 50.0 °F 89% 30.10 in 10.0 mi East 4.6 mph - 0.00 in   Overcast
11:53 AM 52.0 °F - 50.0 °F 93% 30.08 in 4.0 mi Calm Calm - 0.01 in Rain Rain
12:01 PM 52.0 °F - 50.0 °F 93% 30.06 in 2.0 mi North 3.5 mph - 0.01 in Rain Rain
12:15 PM 53.1 °F - 50.0 °F 89% 30.06 in 5.0 mi North 3.5 mph - 0.01 in Rain Light Rain
12:53 PM 52.0 °F - 50.0 °F 93% 30.04 in 6.0 mi NNW 4.6 mph - 0.01 in   Overcast
1:53 PM 52.0 °F - 50.0 °F 93% 30.02 in 5.0 mi NNW 3.5 mph - 0.00 in Rain Light Rain
2:53 PM 52.0 °F - 51.1 °F 97% 30.00 in 5.0 mi North 4.6 mph - 0.00 in   Overcast
3:34 PM 53.1 °F - 51.1 °F 93% 29.98 in 4.0 mi NNE 9.2 mph - 0.01 in Rain Light Rain
3:53 PM 53.1 °F - 51.1 °F 93% 29.99 in 4.0 mi North 6.9 mph - 0.01 in   Overcast
4:26 PM 53.1 °F - 51.1 °F 93% 29.97 in 2.5 mi NNE 5.8 mph - 0.00 in Rain Light Rain
4:53 PM 53.1 °F - 51.1 °F 93% 29.98 in 1.0 mi NNE 5.8 mph - 0.10 in Rain Heavy Rain
5:10 PM 53.1 °F - 52.0 °F 96% 29.96 in 2.0 mi NE 5.8 mph - 0.07 in Rain Light Rain
5:24 PM 53.1 °F - 52.0 °F 96% 29.96 in 4.0 mi NNE 4.6 mph - 0.08 in Rain Light Rain
5:46 PM 53.1 °F - 52.0 °F 96% 29.96 in 4.0 mi NNE 6.9 mph - 0.08 in   Overcast
5:53 PM 53.1 °F - 52.0 °F 96% 29.96 in 4.0 mi NE 5.8 mph - 0.08 in   Overcast
6:41 PM 53.1 °F - 52.0 °F 96% 29.95 in 2.0 mi North 4.6 mph - N/A   Overcast
6:47 PM 53.6 °F - 51.8 °F 94% 29.95 in 1.8 mi North 5.8 mph - N/A   Overcast
6:53 PM 53.1 °F - 52.0 °F 96% 29.96 in 1.5 mi North 4.6 mph - 0.00 in Rain Light Rain
7:13 PM 53.1 °F - 52.0 °F 96% 29.95 in 1.0 mi NNE 4.6 mph - 0.02 in Rain , Thunderstorm Light Rain
7:45 PM 53.1 °F - 52.0 °F 96% 29.94 in 3.0 mi North 5.8 mph - 0.21 in Rain , Thunderstorm Light Rain
7:50 PM 53.6 °F - 51.8 °F 94% 29.95 in 8.0 mi North 5.8 mph - 0.21 in Rain Light Rain
7:53 PM 53.1 °F - 52.0 °F 96% 29.96 in 10.0 mi NNW 5.8 mph - 0.21 in   Overcast
8:41 PM 53.1 °F - 51.1 °F 93% 29.93 in 10.0 mi North 5.8 mph - 0.00 in   Overcast
8:53 PM 53.1 °F - 52.0 °F 96% 29.94 in 7.0 mi WNW 4.6 mph - 0.00 in Rain Light Rain
9:53 PM 52.0 °F - 50.0 °F 93% 29.92 in 7.0 mi North 3.5 mph - 0.00 in   Overcast
10:53 PM 50.0 °F - 48.9 °F 96% 29.91 in 3.0 mi NW 5.8 mph - 0.00 in   Overcast
10:58 PM 50.0 °F - 48.9 °F 96% 29.90 in 2.5 mi NNW 5.8 mph - N/A   Overcast
11:14 PM 50.0 °F - 48.9 °F 96% 29.89 in 1.5 mi NNW 4.6 mph - N/A   Overcast
11:53 PM 50.0 °F - 48.9 °F 96% 29.90 in 1.0 mi WNW 5.8 mph - 0.00 in Rain Light Rain